This is the latest recevied weather packets stored in our database for station/object N7NIP. If no packets are shown the sender has not sent any weather packets the latest 10 day(s).
| Time | Temp. | Humidity | Pressure | Rain* | Wind** | Luminosity | Snow |
|---|---|---|---|---|---|---|---|
| 1778077190 | 11.11° C | 99% | 1033.3 hPa | 0 mm | - | 42 W/m² | - |
| 1778076888 | 11.11° C | 99% | 1033.4 hPa | 0 mm | - | 36 W/m² | - |
| 1778076586 | 11.11° C | 99% | 1033.4 hPa | 0 mm | - | 30 W/m² | - |
| 1778076283 | 11.11° C | 99% | 1033.4 hPa | 0 mm | - | 28 W/m² | - |
| 1778075979 | 11.11° C | 99% | 1033.4 hPa | 0 mm | - | 26 W/m² | - |
| 1778075677 | 11.11° C | 99% | 1033.2 hPa | 0 mm | - | 16 W/m² | - |
| 1778075373 | 11.11° C | 99% | 1033.5 hPa | 0 mm | - | 16 W/m² | - |
| 1778075069 | 11.11° C | 99% | 1033.4 hPa | 0 mm | - | 12 W/m² | - |
| 1778074766 | 11.11° C | 99% | 1033.5 hPa | 0 mm | - | 9 W/m² | - |
| 1778074463 | 10.56° C | 99% | 1033.3 hPa | 0 mm | - | 9 W/m² | - |
| 1778074160 | 10.56° C | 99% | 1033.2 hPa | 0 mm | - | 9 W/m² | - |
| 1778073857 | 10.56° C | 99% | 1033.3 hPa | 0 mm | - | 6 W/m² | - |
| 1778073555 | 10.56° C | 99% | 1033.2 hPa | 0 mm | - | 6 W/m² | - |
| 1778073251 | 10.56° C | 99% | 1033.2 hPa | 0 mm | - | 6 W/m² | - |
| 1778072948 | 10.56° C | 99% | 1033.1 hPa | 0 mm | - | 5 W/m² | - |
| 1778072644 | 10.56° C | 99% | 1032.9 hPa | 0 mm | - | 4 W/m² | - |
| 1778072342 | 10.56° C | 99% | 1033 hPa | 0 mm | - | 2 W/m² | - |
| 1778072041 | 10.56° C | 99% | 1032.7 hPa | 0 mm | - | 2 W/m² | - |
| 1778071739 | 10.56° C | 99% | 1032.8 hPa | 0 mm | - | 1 W/m² | - |
| 1778071435 | 10.56° C | 99% | 1032.8 hPa | 0 mm | - | 1 W/m² | - |
| 1778071133 | 10.56° C | 99% | 1032.8 hPa | 0 mm | - | 1 W/m² | - |
| 1778070831 | 10.56° C | 99% | 1032.8 hPa | 0 mm | - | 0 W/m² | - |
| 1778070528 | 11.11° C | 99% | 1032.7 hPa | 0 mm | - | 0 W/m² | - |
| 1778070225 | 11.11° C | 99% | 1032.9 hPa | 0 mm | - | 0 W/m² | - |
| 1778069923 | 11.11° C | 99% | 1032.7 hPa | 0 mm | - | 0 W/m² | - |
* Rain latest hour (hover to see other rain measurements)
** Current wind speed in m/s (hover to see current wind gust speed)